Washington, IA

5:05 AM CDT on April 30, 2017 (GMT -0500)
Washington Municipal

Weather History for KAWG - February, 2014

Change the Weather History Date:

Wednesday, February 12, 2014

  Actual Average Record
Temperature  
Mean Temperature 16 °F -  
Max Temperature 23 °F 35 °F 48 °F (2017)
Min Temperature 8 °F 20 °F 1 °F (2003)
Degree Days  
Heating Degree Days 50    
Moisture  
Dew Point 10 °F    
Average Humidity 76    
Maximum Humidity 100    
Minimum Humidity 58    
Precipitation  
Precipitation 0.00 in - - ()
Sea Level Pressure  
Sea Level Pressure 30.11 in    
Wind  
Wind Speed 8 mph (South)    
Max Wind Speed 15 mph    
Max Gust Speed 18 mph    
Visibility 8 miles    
Events Snow    
Averages and records for this station are not official NWS values.
T = Trace of Precipitation, MM = Missing Value Source: NWS Daily Summary

Daily Weather History Graph

Daily Weather History Graph

Search for Another Location

Airport or City:

Trip Planner

Search our weather history database for the weather conditions in past years. The results will help you decide how hot, cold, wet, or windy it might be!

Date:

Astronomy

Feb. 12, 2014 Rise Set
Actual Time 7:05 AM CST 5:37 PM CST
Civil Twilight 6:36 AM CST 6:05 PM CST
Nautical Twilight 6:04 AM CST 6:38 PM CST
Astronomical Twilight 5:32 AM CST 7:10 PM CST
Moon 3:50 PM CST (2/12) 5:22 AM CST (2/12)
Length of Visible Light 11h 28m
Length of Day
10h 31m
Waxing Gibbous, 95% of the Moon is Illuminated
Feb 12
Waxing Gibbous
Feb 14
Full
Feb 22
Last Quarter
Mar 1
New
Mar 8
First Quarter

Hourly Weather History & Observations

Time (CST) Temp. Windchill Dew Point Humidity Pressure Visibility Wind Dir Wind Speed Gust Speed Precip Events Conditions
12:15 AM 8.6 °F -8.3 °F -0.4 °F 67% 30.26 in 10.0 mi South 15.0 mph - N/A   Overcast
12:35 AM 8.6 °F -6.3 °F -0.4 °F 67% 30.26 in 10.0 mi South 11.5 mph 18.4 mph N/A   Overcast
12:55 AM 8.6 °F -3.7 °F -0.4 °F 67% 30.27 in 10.0 mi South 8.1 mph - N/A   Overcast
1:15 AM 10.4 °F -2.4 °F 1.4 °F 67% 30.26 in 10.0 mi South 9.2 mph - N/A   Overcast
1:35 AM 10.4 °F -1.5 °F 1.4 °F 67% 30.25 in 10.0 mi South 8.1 mph 13.8 mph N/A   Overcast
1:55 AM 10.4 °F -3.3 °F 1.4 °F 67% 30.25 in 10.0 mi South 10.4 mph - N/A   Overcast
2:15 AM 10.4 °F -1.5 °F 1.4 °F 67% 30.25 in 10.0 mi South 8.1 mph - N/A   Overcast
2:35 AM 10.4 °F -1.5 °F 1.4 °F 67% 30.25 in 10.0 mi South 8.1 mph - N/A   Overcast
2:55 AM 10.4 °F -2.4 °F 1.4 °F 67% 30.23 in 10.0 mi South 9.2 mph - N/A   Overcast
3:15 AM 10.4 °F -0.4 °F 1.4 °F 67% 30.23 in 10.0 mi SSE 6.9 mph - N/A   Overcast
3:35 AM 10.4 °F -1.5 °F 1.4 °F 67% 30.22 in 10.0 mi South 8.1 mph - N/A   Overcast
3:55 AM 10.4 °F -2.4 °F 3.2 °F 73% 30.21 in 10.0 mi South 9.2 mph - N/A   Overcast
4:15 AM 10.4 °F -3.3 °F 3.2 °F 73% 30.21 in 10.0 mi South 10.4 mph - N/A   Overcast
4:35 AM 10.4 °F -3.3 °F 3.2 °F 73% 30.20 in 10.0 mi South 10.4 mph - N/A   Overcast
4:55 AM 10.4 °F -4.1 °F 3.2 °F 73% 30.20 in 10.0 mi South 11.5 mph - N/A   Overcast
5:15 AM 10.4 °F -2.4 °F 3.2 °F 73% 30.19 in 10.0 mi South 9.2 mph - N/A   Overcast
5:35 AM 10.4 °F -3.3 °F 3.2 °F 73% 30.19 in 10.0 mi South 10.4 mph - N/A   Overcast
5:55 AM 12.2 °F -1.0 °F 3.2 °F 67% 30.18 in 10.0 mi South 10.4 mph - N/A   Overcast
6:15 AM 12.2 °F 0.7 °F 3.2 °F 67% 30.18 in 10.0 mi South 8.1 mph - N/A   Overcast
6:35 AM 12.2 °F -1.0 °F 3.2 °F 67% 30.17 in 10.0 mi South 10.4 mph - N/A   Overcast
6:55 AM 12.2 °F -1.8 °F 3.2 °F 67% 30.16 in 10.0 mi South 11.5 mph - N/A   Overcast
7:15 AM 12.2 °F -1.0 °F 3.2 °F 67% 30.17 in 10.0 mi South 10.4 mph - N/A   Overcast
7:35 AM 12.2 °F -1.0 °F 3.2 °F 67% 30.15 in 10.0 mi SSE 10.4 mph - N/A   Overcast
7:55 AM 12.2 °F 0.7 °F 3.2 °F 67% 30.15 in 10.0 mi South 8.1 mph - N/A   Overcast
8:15 AM 12.2 °F -0.2 °F 3.2 °F 67% 30.14 in 10.0 mi SSE 9.2 mph - N/A   Mostly Cloudy
8:35 AM 12.2 °F -1.8 °F 3.2 °F 67% 30.14 in 10.0 mi South 11.5 mph - N/A   Clear
8:55 AM 12.2 °F -1.0 °F 3.2 °F 67% 30.14 in 10.0 mi South 10.4 mph - N/A   Clear
9:15 AM 14.0 °F 2.0 °F 5.0 °F 67% 30.14 in 10.0 mi South 9.2 mph - N/A   Clear
9:35 AM 14.0 °F 3.9 °F 5.0 °F 67% 30.15 in 10.0 mi South 6.9 mph - N/A   Scattered Clouds
9:55 AM 15.8 °F 6.1 °F 5.0 °F 62% 30.15 in 10.0 mi South 6.9 mph - N/A   Mostly Cloudy
10:15 AM 15.8 °F 8.6 °F 5.0 °F 62% 30.15 in 10.0 mi South 4.6 mph - N/A   Overcast
10:35 AM 17.6 °F 9.3 °F 5.0 °F 58% 30.16 in 10.0 mi SSW 5.8 mph - N/A   Mostly Cloudy
10:55 AM 17.6 °F 9.3 °F 5.0 °F 58% 30.15 in 10.0 mi South 5.8 mph - N/A   Mostly Cloudy
11:15 AM 19.4 °F 11.5 °F 6.8 °F 58% 30.14 in 10.0 mi SSW 5.8 mph - N/A   Overcast
11:35 AM 19.4 °F 11.5 °F 8.6 °F 63% 30.13 in 3.0 mi South 5.8 mph - N/A   Scattered Clouds
11:55 AM 19.4 °F 11.5 °F 10.4 °F 68% 30.12 in 3.0 mi SSW 5.8 mph - N/A Snow Light Snow
12:15 PM 21.2 °F 12.6 °F 12.2 °F 68% 30.11 in 3.0 mi SSW 6.9 mph - N/A Snow Light Snow
12:35 PM 21.2 °F 14.9 °F 14.0 °F 74% 30.10 in 2.5 mi SSW 4.6 mph - N/A Snow Light Snow
12:55 PM 23.0 °F 14.7 °F 14.0 °F 68% 30.09 in 6.0 mi SSW 6.9 mph - N/A Snow Light Snow
1:15 PM 23.0 °F 18.4 °F 15.8 °F 74% 30.08 in 5.0 mi SW 3.5 mph - N/A   Haze
1:35 PM 23.0 °F 17.0 °F 17.6 °F 80% 30.08 in 2.0 mi WSW 4.6 mph - N/A Snow Light Snow
1:55 PM 23.0 °F - 17.6 °F 80% 30.06 in 1.8 mi Calm Calm - N/A Snow Light Snow
2:15 PM 23.0 °F - 17.6 °F 80% 30.06 in 5.0 mi Calm Calm - N/A Snow Light Snow
2:35 PM 23.0 °F - 17.6 °F 80% 30.05 in 7.0 mi Calm Calm - N/A   Overcast
2:55 PM 23.0 °F 17.0 °F 17.6 °F 80% 30.05 in 8.0 mi NW 4.6 mph - N/A   Mostly Cloudy
3:15 PM 23.0 °F 17.0 °F 17.6 °F 80% 30.05 in 8.0 mi WNW 4.6 mph - N/A   Mostly Cloudy
3:35 PM 23.0 °F 14.7 °F 17.6 °F 80% 30.05 in 8.0 mi WNW 6.9 mph - N/A   Mostly Cloudy
3:55 PM 23.0 °F 15.8 °F 17.6 °F 80% 30.05 in 6.0 mi NW 5.8 mph - N/A   Overcast
4:15 PM 23.0 °F 15.8 °F 19.4 °F 86% 30.05 in 6.0 mi WNW 5.8 mph - N/A   Overcast
4:35 PM 23.0 °F 15.8 °F 19.4 °F 86% 30.05 in 9.0 mi NW 5.8 mph - N/A   Overcast
4:55 PM 21.2 °F 10.1 °F 17.6 °F 86% 30.07 in 10.0 mi NW 10.4 mph - N/A   Overcast
5:15 PM 21.2 °F 8.9 °F 17.6 °F 86% 30.09 in 10.0 mi NW 12.7 mph - N/A   Overcast
5:35 PM 21.2 °F 13.6 °F 17.6 °F 86% 30.06 in 9.0 mi North 5.8 mph - N/A   Overcast
5:55 PM 21.2 °F - 15.8 °F 80% 30.04 in 9.0 mi Calm Calm - N/A   Overcast
6:15 PM 21.2 °F - 15.8 °F 80% 30.04 in 10.0 mi Calm Calm - N/A   Overcast
6:35 PM 21.2 °F 16.4 °F 15.8 °F 80% 30.05 in 10.0 mi East 3.5 mph - N/A   Overcast
6:55 PM 21.2 °F 13.6 °F 17.6 °F 86% 30.03 in 10.0 mi ESE 5.8 mph - N/A   Overcast
7:15 PM 21.2 °F 11.7 °F 17.6 °F 86% 30.02 in 10.0 mi SE 8.1 mph - N/A   Overcast
7:35 PM 21.2 °F 16.4 °F 17.6 °F 86% 30.02 in 10.0 mi SSE 3.5 mph - N/A   Overcast
7:55 PM 21.2 °F 14.9 °F 17.6 °F 86% 30.01 in 10.0 mi SSE 4.6 mph - N/A   Overcast
8:15 PM 21.2 °F 12.6 °F 17.6 °F 86% 30.01 in 10.0 mi SSE 6.9 mph - N/A   Overcast
8:35 PM 21.2 °F 13.6 °F 17.6 °F 86% 30.01 in 9.0 mi SSE 5.8 mph - N/A   Overcast
8:55 PM 21.2 °F 16.4 °F 17.6 °F 86% 30.01 in 9.0 mi South 3.5 mph - N/A   Overcast
9:15 PM 21.2 °F 14.9 °F 17.6 °F 86% 30.01 in 9.0 mi South 4.6 mph - N/A   Scattered Clouds
9:35 PM 17.6 °F 10.7 °F 15.8 °F 93% 30.01 in 7.0 mi South 4.6 mph - N/A   Clear
9:55 PM 17.6 °F 10.7 °F 15.8 °F 93% 30.01 in 7.0 mi SSW 4.6 mph - N/A   Clear
10:15 PM 15.8 °F 10.2 °F 14.0 °F 93% 30.01 in 6.0 mi SSW 3.5 mph - N/A   Mostly Cloudy
10:35 PM 15.8 °F - 15.8 °F 100% 30.00 in 6.0 mi Calm Calm - N/A   Overcast
10:55 PM 19.4 °F - 15.8 °F 86% 29.98 in 7.0 mi Calm Calm - N/A   Mostly Cloudy
11:15 PM 17.6 °F - 15.8 °F 93% 29.97 in 5.0 mi Calm Calm - N/A   Partly Cloudy
11:35 PM 15.8 °F - 15.8 °F 100% 29.95 in 3.0 mi Calm Calm - N/A   Clear
11:55 PM 14.0 °F - 14.0 °F 100% 29.96 in 1.8 mi Calm Calm - N/A   Clear